Hourly Data Report for May 01, 2006

TORONTO CITY
ONTARIO

43°40'00.000" N
79°24'00.000" W
112.50 m
6158355
71508
XTO

Download Data

Hourly Data (May 2006)
Hourly Data Report for May 1, 2006
TIME
LST
Temp Definition
°C
Dew Point Definition
°C
Rel Hum Definition
%
Precip. Amount Definition
mm

Wind Dir Definition
10's deg

Wind Spd Definition
km/h
Visibility Definition
km
Stn Press Definition
kPa
Hmdx Definition


Wind Chill Definition


Weather Definition


00:00 12.7 -1.8 36   LegendMM LegendMM   101.31     LegendNANA
01:00 12.9 -1.6 37   LegendMM LegendMM   101.30     LegendNANA
02:00 13.3 -1.9 35   LegendMM LegendMM   101.27     LegendNANA
03:00 12.3 -1.2 39   LegendMM LegendMM   101.28     LegendNANA
04:00 11.8 -0.2 44   LegendMM LegendMM   101.28     LegendNANA
05:00 10.9 0.9 50   LegendMM LegendMM   101.34     LegendNANA
06:00 10.7 1.6 53   LegendMM LegendMM   101.38     LegendNANA
07:00 11.5 3.0 56   LegendMM LegendMM   101.43     LegendNANA
08:00 12.8 2.9 51   LegendMM LegendMM   101.46     LegendNANA
09:00 14.8 2.5 43   LegendMM LegendMM   101.46     LegendNANA
10:00 17.5 1.2 33   LegendMM LegendMM   101.43     LegendNANA
11:00 18.6 1.2 31   LegendMM LegendMM   101.40     LegendNANA
12:00 19.5 -1.5 24   LegendMM LegendMM   101.35     LegendNANA
13:00 20.5 0.3 26   LegendMM LegendMM   101.27     LegendNANA
14:00 20.2 -2.3 22   LegendMM LegendMM   101.19     LegendNANA
15:00 21.1 -2.7 20   LegendMM LegendMM   101.13     LegendNANA
16:00 20.1 -3.6 20   LegendMM LegendMM   101.09     LegendNANA
17:00 20.3 -4.8 18   LegendMM LegendMM   100.98     LegendNANA
18:00 17.9 -3.8 23   LegendMM LegendMM   100.98     LegendNANA
19:00 18.1 -6.7 18   LegendMM LegendMM   100.91     LegendNANA
20:00 17.8 -7.3 17   LegendMM LegendMM   100.88     LegendNANA
21:00 17.3 -6.9 18   LegendMM LegendMM   100.88     LegendNANA
22:00 16.7 -6.2 20   LegendMM LegendMM   100.84     LegendNANA
23:00 15.9 -4.9 24   LegendMM LegendMM   100.79     LegendNANA

Notes on Data Quality.

Legend

  • E = Estimated
  • M = Missing
  • NA = Not Available*
  • [empty] = Indicates an unobserved value
Date modified: